Wetterdaten: Woche 01.12.14 - 07.12.14 (KW49)
Datum Zeit Temp. A. Feuchte A. Luftdruck Regen Wind Richtung Sonnenschein ET UV Solar Taupunkt Windchill Windben Empfang
01.12.2014 00:00 1,2 C 80 % 1009,6 hPa 0,0 l/m 8,5 km/h (2 Bft) SO 0,00 h 0,000 mm 0,0 UV-I 0 W/m -1,9 C -0,8 C 12,9 km/h (3 Bft) 0,00 %
01.12.2014 01:00 1,2 C 80 % 1009,2 hPa 0,0 l/m 6,0 km/h (2 Bft) O-SO 0,00 h 0,000 mm 0,0 UV-I 0 W/m -1,9 C 0,3 C 10,9 km/h (2 Bft) 0,00 %
01.12.2014 02:00 1,1 C 80 % 1008,8 hPa 0,0 l/m 16,6 km/h (3 Bft) NO 0,00 h 0,000 mm 0,0 UV-I 0 W/m -1,9 C -6,3 C 24,0 km/h (4 Bft) 0,00 %
01.12.2014 03:00 1,0 C 80 % 1008,2 hPa 0,0 l/m 21,9 km/h (4 Bft) O 0,00 h 0,000 mm 0,0 UV-I 0 W/m -2,0 C -8,8 C 29,0 km/h (5 Bft) 0,00 %
01.12.2014 04:00 1,0 C 80 % 1007,5 hPa 0,0 l/m 14,8 km/h (3 Bft) O 0,00 h 0,000 mm 0,0 UV-I 0 W/m -2,2 C -4,9 C 20,9 km/h (4 Bft) 0,00 %
01.12.2014 05:00 0,9 C 80 % 1007,6 hPa 0,0 l/m 7,8 km/h (2 Bft) O 0,00 h 0,000 mm 0,0 UV-I 0 W/m -2,2 C -1,4 C 12,9 km/h (3 Bft) 0,00 %
01.12.2014 06:00 0,9 C 79 % 1007,3 hPa 0,0 l/m 16,2 km/h (3 Bft) O 0,00 h 0,000 mm 0,0 UV-I 0 W/m -2,3 C -5,8 C 22,0 km/h (4 Bft) 0,00 %
01.12.2014 07:00 0,9 C 79 % 1007,0 hPa 0,6 l/m 18,5 km/h (3 Bft) O 0,00 h 0,000 mm 0,0 UV-I 0 W/m -2,3 C -7,5 C 28,1 km/h (4 Bft) 0,00 %
01.12.2014 08:00 1,0 C 79 % 1006,9 hPa 0,9 l/m 20,4 km/h (4 Bft) O-SO 0,00 h 0,000 mm 0,0 UV-I 6 W/m -2,2 C -8,1 C 27,0 km/h (4 Bft) 0,00 %
01.12.2014 09:00 1,3 C 79 % 1006,8 hPa 0,0 l/m 15,2 km/h (3 Bft) O-SO 0,00 h 0,000 mm 0,0 UV-I 21 W/m -1,9 C -4,8 C 21,0 km/h (4 Bft) 0,00 %
01.12.2014 10:00 1,6 C 78 % 1006,3 hPa 0,0 l/m 27,8 km/h (4 Bft) O-SO 0,00 h 0,000 mm 0,0 UV-I 28 W/m -1,8 C -10,2 C 35,1 km/h (5 Bft) 0,00 %
01.12.2014 11:00 2,0 C 78 % 1005,6 hPa 0,0 l/m 19,5 km/h (3 Bft) O 0,00 h 0,000 mm 0,0 UV-I 36 W/m -1,4 C -5,8 C 26,0 km/h (4 Bft) 0,00 %
01.12.2014 12:00 2,2 C 78 % 1005,1 hPa 0,0 l/m 17,1 km/h (3 Bft) O 0,00 h 0,000 mm 1,0 UV-I 32 W/m -1,3 C -5,0 C 22,9 km/h (4 Bft) 0,00 %
01.12.2014 13:00 2,2 C 78 % 1004,3 hPa 0,0 l/m 19,5 km/h (3 Bft) O 0,00 h 0,000 mm 1,0 UV-I 53 W/m -1,2 C -6,5 C 26,0 km/h (4 Bft) 0,00 %
01.12.2014 14:00 2,5 C 79 % 1004,1 hPa 0,0 l/m 21,7 km/h (4 Bft) O-NO 0,00 h 0,000 mm 1,0 UV-I 50 W/m -0,8 C -6,9 C 31,0 km/h (5 Bft) 0,00 %
01.12.2014 15:00 2,3 C 75 % 1004,2 hPa 0,0 l/m 17,1 km/h (3 Bft) O-SO 0,00 h 0,000 mm 0,0 UV-I 12 W/m -1,6 C -4,8 C 23,9 km/h (4 Bft) 0,00 %
01.12.2014 16:00 2,1 C 75 % 1004,8 hPa 0,0 l/m 16,9 km/h (3 Bft) O 0,00 h 0,000 mm 0,0 UV-I 0 W/m -1,9 C -5,0 C 23,0 km/h (4 Bft) 0,00 %
01.12.2014 17:00 2,0 C 74 % 1004,8 hPa 0,0 l/m 21,4 km/h (4 Bft) O-NO 0,00 h 0,000 mm 0,0 UV-I 0 W/m -2,3 C -7,6 C 30,0 km/h (5 Bft) 0,00 %
01.12.2014 18:00 2,0 C 72 % 1005,0 hPa 0,0 l/m 12,5 km/h (3 Bft) O 0,00 h 0,000 mm 0,0 UV-I 0 W/m -2,5 C -2,9 C 18,9 km/h (3 Bft) 0,00 %
01.12.2014 19:00 2,0 C 72 % 1005,7 hPa 0,0 l/m 16,4 km/h (3 Bft) O-NO 0,00 h 0,000 mm 0,0 UV-I 0 W/m -2,5 C -5,0 C 23,0 km/h (4 Bft) 0,00 %
01.12.2014 20:00 1,8 C 73 % 1006,1 hPa 0,0 l/m 8,1 km/h (2 Bft) O 0,00 h 0,000 mm 0,0 UV-I 0 W/m -2,5 C -0,3 C 11,9 km/h (2 Bft) 0,00 %
01.12.2014 21:00 1,7 C 74 % 1006,5 hPa 0,0 l/m 8,0 km/h (2 Bft) SO 0,00 h 0,000 mm 0,0 UV-I 0 W/m -2,5 C 0,2 C 11,9 km/h (2 Bft) 0,00 %
01.12.2014 22:00 1,5 C 74 % 1006,9 hPa 0,0 l/m 2,7 km/h (1 Bft) O 0,00 h 0,000 mm 0,0 UV-I 0 W/m -2,6 C 1,5 C 6,0 km/h (2 Bft) 0,00 %
01.12.2014 23:00 1,3 C 76 % 1007,3 hPa 0,0 l/m 9,0 km/h (2 Bft) O 0,00 h 0,000 mm 0,0 UV-I 0 W/m -2,4 C -1,1 C 11,9 km/h (2 Bft) 0,00 %
02.12.2014 00:00 1,1 C 78 % 1007,6 hPa 0,0 l/m 7,3 km/h (2 Bft) O-SO 0,00 h 0,000 mm 0,0 UV-I 0 W/m -2,3 C -0,3 C 11,9 km/h (2 Bft) 0,00 %
02.12.2014 01:00 1,0 C 79 % 1007,7 hPa 0,0 l/m 7,1 km/h (2 Bft) S 0,00 h 0,000 mm 0,0 UV-I 0 W/m -2,2 C -0,6 C 9,9 km/h (2 Bft) 0,00 %
02.12.2014 02:00 0,9 C 79 % 1007,9 hPa 0,0 l/m 5,6 km/h (1 Bft) NO 0,00 h 0,000 mm 0,0 UV-I 0 W/m -2,3 C -0,5 C 9,9 km/h (2 Bft) 0,00 %
02.12.2014 03:00 0,8 C 79 % 1007,8 hPa 0,0 l/m 6,0 km/h (2 Bft) O-NO 0,00 h 0,000 mm 0,0 UV-I 0 W/m -2,4 C -0,3 C 11,9 km/h (2 Bft) 0,00 %
02.12.2014 04:00 0,7 C 79 % 1007,8 hPa 0,0 l/m 8,2 km/h (2 Bft) O 0,00 h 0,000 mm 0,0 UV-I 0 W/m -2,5 C -1,1 C 12,9 km/h (3 Bft) 0,00 %
02.12.2014 05:00 0,7 C 79 % 1008,1 hPa 0,0 l/m 9,9 km/h (2 Bft) O-SO 0,00 h 0,000 mm 0,0 UV-I 0 W/m -2,5 C -3,0 C 13,8 km/h (3 Bft) 0,00 %
02.12.2014 06:00 0,6 C 80 % 1008,4 hPa 0,0 l/m 11,8 km/h (2 Bft) O 0,00 h 0,000 mm 0,0 UV-I 0 W/m -2,5 C -4,5 C 16,9 km/h (3 Bft) 0,00 %
02.12.2014 07:00 0,5 C 80 % 1008,7 hPa 0,0 l/m 0,7 km/h (0 Bft) N 0,00 h 0,000 mm 0,0 UV-I 0 W/m -2,5 C 0,5 C 2,0 km/h (1 Bft) 0,00 %
02.12.2014 08:00 0,5 C 80 % 1009,2 hPa 0,0 l/m 0,0 km/h (0 Bft) N 0,00 h 0,000 mm 0,0 UV-I 2 W/m -2,5 C 0,5 C 7,9 km/h (2 Bft) 0,00 %
02.12.2014 09:00 0,5 C 80 % 1009,8 hPa 0,0 l/m 0,0 km/h (0 Bft) N 0,00 h 0,000 mm 0,0 UV-I 17 W/m -2,5 C 0,5 C 0,0 km/h (0 Bft) 0,00 %
02.12.2014 10:00 0,5 C 80 % 1010,2 hPa 0,0 l/m 0,0 km/h (0 Bft) O 0,00 h 0,000 mm 0,0 UV-I 40 W/m -2,5 C 0,5 C 0,0 km/h (0 Bft) 0,00 %
02.12.2014 11:00 0,6 C 79 % 1010,3 hPa 0,0 l/m 9,6 km/h (2 Bft) O 0,00 h 0,000 mm 1,0 UV-I 47 W/m -2,5 C -2,1 C 12,9 km/h (3 Bft) 0,00 %
02.12.2014 12:00 0,5 C 79 % 1010,1 hPa 0,0 l/m 8,2 km/h (2 Bft) O-SO 0,00 h 0,000 mm 1,0 UV-I 48 W/m -2,7 C -1,9 C 11,9 km/h (2 Bft) 0,00 %
02.12.2014 13:00 0,6 C 79 % 1010,0 hPa 0,0 l/m 4,8 km/h (1 Bft) O-SO 0,00 h 0,000 mm 0,0 UV-I 44 W/m -2,6 C -0,1 C 8,9 km/h (2 Bft) 0,00 %
02.12.2014 14:00 0,6 C 79 % 1010,0 hPa 0,0 l/m 5,1 km/h (1 Bft) O-SO 0,00 h 0,000 mm 0,0 UV-I 29 W/m -2,6 C -0,4 C 7,9 km/h (2 Bft) 0,00 %
02.12.2014 15:00 0,6 C 78 % 1010,3 hPa 0,0 l/m 6,5 km/h (2 Bft) O 0,00 h 0,000 mm 0,0 UV-I 9 W/m -2,7 C -0,5 C 9,9 km/h (2 Bft) 0,00 %
02.12.2014 16:00 0,5 C 79 % 1010,8 hPa 0,0 l/m 9,2 km/h (2 Bft) O 0,00 h 0,000 mm 0,0 UV-I 0 W/m -2,7 C -3,0 C 12,9 km/h (3 Bft) 0,00 %
02.12.2014 17:00 0,6 C 78 % 1011,0 hPa 0,0 l/m 6,2 km/h (2 Bft) O-NO 0,00 h 0,000 mm 0,0 UV-I 0 W/m -2,8 C -0,4 C 9,9 km/h (2 Bft) 0,00 %
02.12.2014 18:00 0,6 C 78 % 1011,5 hPa 0,0 l/m 1,7 km/h (1 Bft) O 0,00 h 0,000 mm 0,0 UV-I 0 W/m -2,9 C 0,6 C 4,0 km/h (1 Bft) 0,00 %
02.12.2014 19:00 0,7 C 77 % 1011,9 hPa 0,0 l/m 4,5 km/h (1 Bft) NO 0,00 h 0,000 mm 0,0 UV-I 0 W/m -2,9 C 0,7 C 8,9 km/h (2 Bft) 0,00 %
02.12.2014 20:00 0,7 C 77 % 1012,3 hPa 0,0 l/m 6,3 km/h (2 Bft) O-NO 0,00 h 0,000 mm 0,0 UV-I 0 W/m -2,8 C -0,6 C 9,9 km/h (2 Bft) 0,00 %
02.12.2014 21:00 0,7 C 78 % 1012,6 hPa 0,0 l/m 5,1 km/h (1 Bft) O 0,00 h 0,000 mm 0,0 UV-I 0 W/m -2,6 C 0,1 C 8,9 km/h (2 Bft) 0,00 %
02.12.2014 22:00 0,7 C 79 % 1012,8 hPa 0,0 l/m 2,2 km/h (1 Bft) O 0,00 h 0,000 mm 0,0 UV-I 0 W/m -2,6 C 0,7 C 4,0 km/h (1 Bft) 0,00 %
02.12.2014 23:00 0,9 C 78 % 1013,1 hPa 0,0 l/m 8,3 km/h (2 Bft) O 0,00 h 0,000 mm 0,0 UV-I 0 W/m -2,5 C -1,9 C 11,9 km/h (2 Bft) 0,00 %
03.12.2014 00:00 0,9 C 78 % 1013,0 hPa 0,0 l/m 5,5 km/h (1 Bft) O 0,00 h 0,000 mm 0,0 UV-I 0 W/m -2,4 C -0,5 C 8,9 km/h (2 Bft) 0,00 %
03.12.2014 01:00 1,0 C 78 % 1013,2 hPa 0,0 l/m 6,2 km/h (2 Bft) O-SO 0,00 h 0,000 mm 0,0 UV-I 0 W/m -2,3 C -0,3 C 8,9 km/h (2 Bft) 0,00 %
03.12.2014 02:00 1,2 C 78 % 1013,3 hPa 0,0 l/m 3,4 km/h (1 Bft) O 0,00 h 0,000 mm 0,0 UV-I 0 W/m -2,2 C 0,5 C 5,9 km/h (2 Bft) 0,00 %
03.12.2014 03:00 1,2 C 79 % 1013,3 hPa 0,0 l/m 6,9 km/h (2 Bft) O 0,00 h 0,000 mm 0,0 UV-I 0 W/m -2,0 C 0,6 C 8,9 km/h (2 Bft) 0,00 %
03.12.2014 04:00 1,4 C 78 % 1013,6 hPa 0,0 l/m 3,8 km/h (1 Bft) O 0,00 h 0,000 mm 0,0 UV-I 0 W/m -2,0 C 1,4 C 5,9 km/h (2 Bft) 0,00 %
03.12.2014 05:00 1,5 C 77 % 1013,9 hPa 0,0 l/m 2,0 km/h (1 Bft) O-NO 0,00 h 0,000 mm 0,0 UV-I 0 W/m -2,1 C 1,5 C 5,0 km/h (1 Bft) 0,00 %
03.12.2014 06:00 1,5 C 77 % 1014,2 hPa 0,0 l/m 3,9 km/h (1 Bft) O-SO 0,00 h 0,000 mm 0,0 UV-I 0 W/m -2,1 C 1,4 C 6,9 km/h (2 Bft) 0,00 %
03.12.2014 07:00 1,6 C 77 % 1014,8 hPa 0,0 l/m 2,0 km/h (1 Bft) O-SO 0,00 h 0,000 mm 0,0 UV-I 0 W/m -2,0 C 1,6 C 4,0 km/h (1 Bft) 0,00 %
03.12.2014 08:00 1,8 C 76 % 1015,3 hPa 0,0 l/m 5,4 km/h (1 Bft) O 0,00 h 0,000 mm 0,0 UV-I 11 W/m -2,0 C 1,6 C 8,9 km/h (2 Bft) 0,00 %
03.12.2014 09:00 2,0 C 76 % 1015,5 hPa 0,0 l/m 3,0 km/h (1 Bft) O-SO 0,00 h 0,000 mm 0,0 UV-I 40 W/m -1,8 C 1,9 C 5,0 km/h (1 Bft) 0,00 %
03.12.2014 10:00 2,3 C 75 % 1015,8 hPa 0,0 l/m 2,1 km/h (1 Bft) N 0,00 h 0,000 mm 1,0 UV-I 87 W/m -1,7 C 2,1 C 5,0 km/h (1 Bft) 0,00 %
03.12.2014 11:00 2,5 C 78 % 1015,5 hPa 0,0 l/m 0,1 km/h (0 Bft) N 0,00 h 0,000 mm 0,0 UV-I 76 W/m -0,9 C 2,5 C 1,0 km/h (0 Bft) 0,00 %
03.12.2014 12:00 2,5 C 80 % 1015,5 hPa 0,0 l/m 0,0 km/h (0 Bft) N 0,00 h 0,000 mm 0,0 UV-I 60 W/m -0,6 C 2,5 C 0,0 km/h (0 Bft) 0,00 %
03.12.2014 13:00 2,9 C 79 % 1015,3 hPa 0,0 l/m 0,0 km/h (0 Bft) N 0,00 h 0,000 mm 0,0 UV-I 47 W/m -0,4 C 2,9 C 0,0 km/h (0 Bft) 0,00 %
03.12.2014 14:00 2,8 C 79 % 1015,6 hPa 0,0 l/m 0,3 km/h (0 Bft) O-SO 0,00 h 0,000 mm 0,0 UV-I 0 W/m -0,4 C 2,8 C 1,0 km/h (0 Bft) 0,00 %
03.12.2014 15:00 3,0 C 80 % 1015,8 hPa 0,0 l/m 1,0 km/h (0 Bft) O-SO 0,00 h 0,000 mm 0,0 UV-I 0 W/m -0,1 C 3,0 C 4,0 km/h (1 Bft) 0,00 %
03.12.2014 16:00 3,0 C 80 % 1016,3 hPa 0,0 l/m 1,9 km/h (1 Bft) O 0,00 h 0,000 mm 0,0 UV-I 0 W/m -0,1 C 3,0 C 4,0 km/h (1 Bft) 0,00 %
03.12.2014 17:00 3,0 C 79 % 1016,4 hPa 0,0 l/m 5,1 km/h (1 Bft) SO 0,00 h 0,000 mm 0,0 UV-I 0 W/m -0,3 C 2,2 C 6,9 km/h (2 Bft) 0,00 %
03.12.2014 18:00 3,0 C 78 % 1016,5 hPa 0,0 l/m 1,9 km/h (1 Bft) O-SO 0,00 h 0,000 mm 0,0 UV-I 0 W/m -0,5 C 3,0 C 5,9 km/h (2 Bft) 0,00 %
03.12.2014 19:00 2,9 C 78 % 1016,4 hPa 0,0 l/m 3,7 km/h (1 Bft) O 0,00 h 0,000 mm 0,0 UV-I 0 W/m -0,6 C 2,2 C 6,9 km/h (2 Bft) 0,00 %
03.12.2014 20:00 2,8 C 79 % 1016,3 hPa 0,0 l/m 3,1 km/h (1 Bft) O-SO 0,00 h 0,000 mm 0,0 UV-I 0 W/m -0,5 C 2,8 C 5,9 km/h (2 Bft) 0,00 %
03.12.2014 21:00 2,8 C 79 % 1016,1 hPa 0,0 l/m 5,8 km/h (2 Bft) O 0,00 h 0,000 mm 0,0 UV-I 0 W/m -0,4 C 1,4 C 8,9 km/h (2 Bft) 0,00 %
03.12.2014 22:00 2,9 C 79 % 1015,9 hPa 0,0 l/m 7,3 km/h (2 Bft) O-SO 0,00 h 0,000 mm 0,0 UV-I 0 W/m -0,4 C 1,0 C 10,9 km/h (2 Bft) 0,00 %
03.12.2014 23:00 2,8 C 80 % 1015,7 hPa 0,0 l/m 12,3 km/h (3 Bft) O 0,00 h 0,000 mm 0,0 UV-I 0 W/m -0,4 C -2,0 C 17,3 km/h (3 Bft) 0,00 %
04.12.2014 00:00 2,7 C 82 % 1015,4 hPa 0,0 l/m 5,0 km/h (1 Bft) O 0,00 h 0,000 mm 0,0 UV-I 0 W/m -0,1 C 1,6 C 6,9 km/h (2 Bft) 0,00 %
04.12.2014 01:00 2,9 C 81 % 1014,9 hPa 0,0 l/m 5,2 km/h (1 Bft) O 0,00 h 0,000 mm 0,0 UV-I 0 W/m -0,0 C 1,8 C 8,9 km/h (2 Bft) 0,00 %
04.12.2014 02:00 3,1 C 80 % 1014,4 hPa 0,0 l/m 8,1 km/h (2 Bft) O-SO 0,00 h 0,000 mm 0,0 UV-I 0 W/m 0,0 C 1,5 C 10,9 km/h (2 Bft) 0,00 %
04.12.2014 03:00 3,3 C 80 % 1014,0 hPa 0,0 l/m 6,6 km/h (2 Bft) O 0,00 h 0,000 mm 0,0 UV-I 0 W/m 0,1 C 1,9 C 10,9 km/h (2 Bft) 0,00 %
04.12.2014 04:00 3,3 C 80 % 1013,7 hPa 0,0 l/m 4,5 km/h (1 Bft) O 0,00 h 0,000 mm 0,0 UV-I 0 W/m 0,2 C 3,3 C 9,9 km/h (2 Bft) 0,00 %
04.12.2014 05:00 3,4 C 79 % 1013,5 hPa 0,0 l/m 5,2 km/h (1 Bft) O 0,00 h 0,000 mm 0,0 UV-I 0 W/m 0,2 C 2,0 C 7,9 km/h (2 Bft) 0,00 %
04.12.2014 06:00 3,5 C 79 % 1013,1 hPa 0,0 l/m 9,2 km/h (2 Bft) O-NO 0,00 h 0,000 mm 0,0 UV-I 0 W/m 0,3 C 1,2 C 12,9 km/h (3 Bft) 0,00 %
04.12.2014 07:00 3,6 C 79 % 1012,9 hPa 0,0 l/m 11,5 km/h (2 Bft) O-SO 0,00 h 0,000 mm 0,0 UV-I 1 W/m 0,2 C -0,5 C 15,8 km/h (3 Bft) 0,00 %
04.12.2014 08:00 4,0 C 78 % 1012,9 hPa 0,0 l/m 10,5 km/h (2 Bft) O 0,25 h 0,000 mm 1,0 UV-I 55 W/m 0,4 C 0,7 C 13,9 km/h (3 Bft) 0,00 %
04.12.2014 09:00 5,1 C 73 % 1012,6 hPa 0,0 l/m 13,6 km/h (3 Bft) O 0,00 h 0,000 mm 1,0 UV-I 86 W/m 0,7 C 0,1 C 19,9 km/h (4 Bft) 0,00 %
04.12.2014 10:00 5,8 C 72 % 1012,5 hPa 0,0 l/m 10,2 km/h (2 Bft) SO 0,00 h 0,000 mm 1,0 UV-I 68 W/m 1,2 C 3,4 C 14,0 km/h (3 Bft) 0,00 %
04.12.2014 11:00 5,8 C 72 % 1012,2 hPa 0,0 l/m 6,1 km/h (2 Bft) O 0,00 h 0,000 mm 1,0 UV-I 97 W/m 1,2 C 5,5 C 10,9 km/h (2 Bft) 0,00 %
04.12.2014 12:00 6,2 C 72 % 1011,9 hPa 0,0 l/m 10,5 km/h (2 Bft) O 0,00 h 0,000 mm 1,0 UV-I 77 W/m 1,6 C 3,7 C 18,9 km/h (3 Bft) 0,00 %
04.12.2014 13:00 6,3 C 73 % 1011,6 hPa 0,0 l/m 8,3 km/h (2 Bft) O-SO 0,00 h 0,000 mm 1,0 UV-I 52 W/m 1,7 C 4,5 C 13,8 km/h (3 Bft) 0,00 %
04.12.2014 14:00 6,5 C 72 % 1011,5 hPa 0,0 l/m 10,3 km/h (2 Bft) O-SO 0,00 h 0,000 mm 1,0 UV-I 38 W/m 1,7 C 3,5 C 15,9 km/h (3 Bft) 0,00 %
04.12.2014 15:00 6,5 C 72 % 1011,3 hPa 0,0 l/m 8,4 km/h (2 Bft) O 0,00 h 0,000 mm 0,0 UV-I 15 W/m 1,7 C 4,5 C 13,9 km/h (3 Bft) 0,00 %
04.12.2014 16:00 5,8 C 74 % 1011,6 hPa 0,0 l/m 10,1 km/h (2 Bft) N-NO 0,00 h 0,000 mm 0,0 UV-I 0 W/m 1,5 C 3,1 C 14,9 km/h (3 Bft) 0,00 %
04.12.2014 17:00 5,0 C 77 % 1012,5 hPa 0,0 l/m 3,1 km/h (1 Bft) O-NO 0,00 h 0,000 mm 0,0 UV-I 0 W/m 1,3 C 5,0 C 5,9 km/h (2 Bft) 0,00 %
04.12.2014 18:00 4,6 C 78 % 1013,5 hPa 0,0 l/m 3,2 km/h (1 Bft) O 0,00 h 0,000 mm 0,0 UV-I 0 W/m 1,0 C 4,6 C 6,9 km/h (2 Bft) 0,00 %
04.12.2014 19:00 4,3 C 79 % 1013,8 hPa 0,0 l/m 0,7 km/h (0 Bft) O 0,00 h 0,000 mm 0,0 UV-I 0 W/m 1,0 C 4,3 C 2,0 km/h (1 Bft) 0,00 %
04.12.2014 20:00 4,0 C 80 % 1014,3 hPa 0,0 l/m 2,5 km/h (1 Bft) NO 0,00 h 0,000 mm 0,0 UV-I 0 W/m 0,9 C 4,0 C 5,0 km/h (1 Bft) 0,00 %
04.12.2014 21:00 3,9 C 81 % 1014,8 hPa 0,0 l/m 0,2 km/h (0 Bft) N 0,00 h 0,000 mm 0,0 UV-I 0 W/m 0,9 C 3,9 C 2,0 km/h (1 Bft) 0,00 %
04.12.2014 22:00 3,9 C 82 % 1015,2 hPa 0,0 l/m 0,0 km/h (0 Bft) N 0,00 h 0,000 mm 0,0 UV-I 0 W/m 1,0 C 3,9 C 0,0 km/h (0 Bft) 0,00 %
04.12.2014 23:00 3,8 C 83 % 1015,5 hPa 0,0 l/m 0,0 km/h (0 Bft) N 0,00 h 0,000 mm 0,0 UV-I 0 W/m 1,1 C 3,8 C 0,0 km/h (0 Bft) 0,00 %
05.12.2014 00:00 4,0 C 82 % 1015,2 hPa 0,0 l/m 0,0 km/h (0 Bft) N 0,00 h 0,000 mm 0,0 UV-I 0 W/m 1,2 C 4,0 C 0,0 km/h (0 Bft) 0,00 %
05.12.2014 01:00 3,6 C 82 % 1015,5 hPa 0,0 l/m 0,1 km/h (0 Bft) N 0,00 h 0,000 mm 0,0 UV-I 0 W/m 0,8 C 3,6 C 1,0 km/h (0 Bft) 0,00 %
05.12.2014 02:00 3,2 C 83 % 1015,8 hPa 0,0 l/m 0,0 km/h (0 Bft) N 0,00 h 0,000 mm 0,0 UV-I 0 W/m 0,6 C 3,2 C 0,0 km/h (0 Bft) 0,00 %
05.12.2014 03:00 3,3 C 83 % 1016,0 hPa 0,0 l/m 0,0 km/h (0 Bft) N 0,00 h 0,000 mm 0,0 UV-I 0 W/m 0,7 C 3,3 C 0,0 km/h (0 Bft) 0,00 %
05.12.2014 04:00 3,5 C 82 % 1016,0 hPa 0,0 l/m 0,0 km/h (0 Bft) N 0,00 h 0,000 mm 0,0 UV-I 0 W/m 0,7 C 3,5 C 0,0 km/h (0 Bft) 0,00 %
05.12.2014 05:00 3,6 C 82 % 1016,3 hPa 0,0 l/m 0,0 km/h (0 Bft) N 0,00 h 0,000 mm 0,0 UV-I 0 W/m 0,8 C 3,6 C 0,0 km/h (0 Bft) 0,00 %
05.12.2014 06:00 3,5 C 82 % 1016,7 hPa 0,0 l/m 1,3 km/h (1 Bft) O 0,00 h 0,000 mm 0,0 UV-I 0 W/m 0,8 C 3,5 C 3,0 km/h (1 Bft) 0,00 %
05.12.2014 07:00 3,3 C 84 % 1017,2 hPa 0,0 l/m 0,4 km/h (0 Bft) SO 0,00 h 0,000 mm 0,0 UV-I 0 W/m 0,9 C 3,3 C 1,0 km/h (0 Bft) 0,00 %
05.12.2014 08:00 3,3 C 84 % 1017,5 hPa 0,0 l/m 0,1 km/h (0 Bft) N 0,00 h 0,000 mm 0,0 UV-I 0 W/m 0,9 C 3,3 C 1,0 km/h (0 Bft) 0,00 %
05.12.2014 09:00 3,5 C 83 % 1017,6 hPa 0,0 l/m 1,0 km/h (0 Bft) O 0,00 h 0,000 mm 0,0 UV-I 53 W/m 0,9 C 3,5 C 2,0 km/h (1 Bft) 0,00 %
05.12.2014 10:00 3,6 C 83 % 1017,7 hPa 0,0 l/m 1,1 km/h (0 Bft) O 0,00 h 0,000 mm 1,0 UV-I 137 W/m 1,0 C 3,6 C 3,0 km/h (1 Bft) 0,00 %
05.12.2014 11:00 4,0 C 81 % 1017,5 hPa 0,0 l/m 0,4 km/h (0 Bft) O-NO 0,25 h 0,000 mm 1,0 UV-I 140 W/m 1,0 C 4,0 C 1,0 km/h (0 Bft) 0,00 %
05.12.2014 12:00 3,8 C 78 % 1017,2 hPa 0,0 l/m 1,0 km/h (0 Bft) O-SO 1,00 h 0,000 mm 1,0 UV-I 234 W/m 0,4 C 3,8 C 3,0 km/h (1 Bft) 0,00 %
05.12.2014 13:00 3,5 C 80 % 1017,0 hPa 0,0 l/m 1,8 km/h (1 Bft) O-SO 0,00 h 0,000 mm 0,0 UV-I 62 W/m 0,4 C 3,5 C 4,0 km/h (1 Bft) 0,00 %
05.12.2014 14:00 3,2 C 83 % 1017,0 hPa 0,0 l/m 0,0 km/h (0 Bft) N 0,00 h 0,000 mm 0,0 UV-I 13 W/m 0,5 C 3,2 C 0,0 km/h (0 Bft) 0,00 %
05.12.2014 15:00 3,0 C 83 % 1017,2 hPa 0,0 l/m 0,2 km/h (0 Bft) N 0,00 h 0,000 mm 0,0 UV-I 0 W/m 0,4 C 3,0 C 1,0 km/h (0 Bft) 0,00 %
05.12.2014 16:00 3,0 C 83 % 1017,3 hPa 0,0 l/m 0,0 km/h (0 Bft) N 0,00 h 0,000 mm 0,0 UV-I 0 W/m 0,4 C 3,0 C 0,0 km/h (0 Bft) 0,00 %
05.12.2014 17:00 2,9 C 84 % 1017,5 hPa 0,0 l/m 0,0 km/h (0 Bft) N 0,00 h 0,000 mm 0,0 UV-I 0 W/m 0,4 C 2,9 C 0,0 km/h (0 Bft) 0,00 %
05.12.2014 18:00 2,9 C 84 % 1017,5 hPa 0,0 l/m 0,0 km/h (0 Bft) N 0,00 h 0,000 mm 0,0 UV-I 0 W/m 0,4 C 2,9 C 0,0 km/h (0 Bft) 0,00 %
05.12.2014 19:00 2,8 C 84 % 1017,6 hPa 0,0 l/m 0,0 km/h (0 Bft) N 0,00 h 0,000 mm 0,0 UV-I 0 W/m 0,4 C 2,8 C 0,0 km/h (0 Bft) 0,00 %
05.12.2014 20:00 2,8 C 85 % 1017,5 hPa 0,0 l/m 0,0 km/h (0 Bft) N 0,00 h 0,000 mm 0,0 UV-I 0 W/m 0,5 C 2,8 C 0,0 km/h (0 Bft) 0,00 %
05.12.2014 21:00 2,8 C 85 % 1017,6 hPa 0,0 l/m 0,0 km/h (0 Bft) N 0,00 h 0,000 mm 0,0 UV-I 0 W/m 0,5 C 2,8 C 0,0 km/h (0 Bft) 0,00 %
05.12.2014 22:00 2,8 C 85 % 1017,8 hPa 0,0 l/m 0,0 km/h (0 Bft) N 0,00 h 0,000 mm 0,0 UV-I 0 W/m 0,5 C 2,8 C 0,0 km/h (0 Bft) 0,00 %
05.12.2014 23:00 2,9 C 85 % 1018,1 hPa 0,0 l/m 0,0 km/h (0 Bft) N 0,00 h 0,000 mm 0,0 UV-I 0 W/m 0,6 C 2,9 C 0,0 km/h (0 Bft) 0,00 %
06.12.2014 00:00 2,9 C 85 % 1018,0 hPa 0,0 l/m 0,0 km/h (0 Bft) N 0,00 h 0,000 mm 0,0 UV-I 0 W/m 0,7 C 2,9 C 0,0 km/h (0 Bft) 0,00 %
06.12.2014 01:00 3,0 C 86 % 1017,9 hPa 0,3 l/m 0,0 km/h (0 Bft) N 0,00 h 0,000 mm 0,0 UV-I 0 W/m 0,9 C 3,0 C 0,0 km/h (0 Bft) 0,00 %
06.12.2014 02:00 2,9 C 86 % 1018,1 hPa 0,0 l/m 0,0 km/h (0 Bft) N 0,00 h 0,000 mm 0,0 UV-I 0 W/m 0,8 C 2,9 C 0,0 km/h (0 Bft) 0,00 %
06.12.2014 03:00 2,9 C 86 % 1018,2 hPa 0,0 l/m 0,0 km/h (0 Bft) N 0,00 h 0,000 mm 0,0 UV-I 0 W/m 0,7 C 2,9 C 0,0 km/h (0 Bft) 0,00 %
06.12.2014 04:00 2,8 C 85 % 1018,2 hPa 0,0 l/m 0,0 km/h (0 Bft) N 0,00 h 0,000 mm 0,0 UV-I 0 W/m 0,5 C 2,8 C 0,0 km/h (0 Bft) 0,00 %
06.12.2014 05:00 2,8 C 85 % 1018,3 hPa 0,0 l/m 0,1 km/h (0 Bft) N 0,00 h 0,000 mm 0,0 UV-I 0 W/m 0,5 C 2,8 C 1,0 km/h (0 Bft) 0,00 %
06.12.2014 06:00 2,8 C 85 % 1018,7 hPa 0,0 l/m 0,0 km/h (0 Bft) N 0,00 h 0,000 mm 0,0 UV-I 0 W/m 0,4 C 2,8 C 0,0 km/h (0 Bft) 0,00 %
06.12.2014 07:00 2,8 C 85 % 1019,2 hPa 0,0 l/m 0,0 km/h (0 Bft) N 0,00 h 0,000 mm 0,0 UV-I 0 W/m 0,5 C 2,8 C 0,0 km/h (0 Bft) 0,00 %
06.12.2014 08:00 3,0 C 85 % 1019,5 hPa 0,0 l/m 0,2 km/h (0 Bft) N 0,00 h 0,000 mm 0,0 UV-I 13 W/m 0,7 C 3,0 C 1,0 km/h (0 Bft) 0,00 %
06.12.2014 09:00 3,2 C 84 % 1019,8 hPa 0,0 l/m 0,2 km/h (0 Bft) N 0,00 h 0,000 mm 1,0 UV-I 48 W/m 0,8 C 3,2 C 1,0 km/h (0 Bft) 0,00 %
06.12.2014 10:00 3,6 C 82 % 1020,2 hPa 0,0 l/m 0,0 km/h (0 Bft) W-SW 0,00 h 0,000 mm 1,0 UV-I 71 W/m 0,8 C 3,6 C 0,0 km/h (0 Bft) 0,00 %
06.12.2014 11:00 3,9 C 80 % 1020,2 hPa 0,0 l/m 0,6 km/h (0 Bft) N 0,00 h 0,000 mm 1,0 UV-I 82 W/m 0,8 C 3,9 C 2,0 km/h (1 Bft) 0,00 %
06.12.2014 12:00 4,2 C 79 % 1019,9 hPa 0,0 l/m 0,0 km/h (0 Bft) N 0,00 h 0,000 mm 1,0 UV-I 70 W/m 0,8 C 4,2 C 0,0 km/h (0 Bft) 0,00 %
06.12.2014 13:00 4,3 C 77 % 1019,8 hPa 0,0 l/m 0,2 km/h (0 Bft) W-SW 0,00 h 0,000 mm 1,0 UV-I 71 W/m 0,7 C 4,3 C 1,0 km/h (0 Bft) 0,00 %
06.12.2014 14:00 4,2 C 77 % 1019,9 hPa 0,0 l/m 0,8 km/h (0 Bft) N 0,00 h 0,000 mm 1,0 UV-I 53 W/m 0,4 C 4,2 C 2,0 km/h (1 Bft) 0,00 %
06.12.2014 15:00 3,7 C 78 % 1020,2 hPa 0,0 l/m 0,0 km/h (0 Bft) N 0,00 h 0,000 mm 0,0 UV-I 8 W/m 0,1 C 3,7 C 0,0 km/h (0 Bft) 0,00 %
06.12.2014 16:00 3,3 C 80 % 1020,6 hPa 0,0 l/m 0,0 km/h (0 Bft) N 0,00 h 0,000 mm 0,0 UV-I 0 W/m 0,1 C 3,3 C 0,0 km/h (0 Bft) 0,00 %
06.12.2014 17:00 2,9 C 82 % 1020,9 hPa 0,0 l/m 0,0 km/h (0 Bft) N 0,00 h 0,000 mm 0,0 UV-I 0 W/m 0,1 C 2,9 C 0,0 km/h (0 Bft) 0,00 %
06.12.2014 18:00 2,8 C 83 % 1021,1 hPa 0,0 l/m 0,0 km/h (0 Bft) N 0,00 h 0,000 mm 0,0 UV-I 0 W/m 0,1 C 2,8 C 0,0 km/h (0 Bft) 0,00 %
06.12.2014 19:00 2,7 C 83 % 1021,2 hPa 0,0 l/m 0,0 km/h (0 Bft) N 0,00 h 0,000 mm 0,0 UV-I 0 W/m 0,0 C 2,7 C 0,0 km/h (0 Bft) 0,00 %
06.12.2014 20:00 2,5 C 83 % 1021,2 hPa 0,3 l/m 0,0 km/h (0 Bft) N 0,00 h 0,000 mm 0,0 UV-I 0 W/m -0,1 C 2,5 C 0,0 km/h (0 Bft) 0,00 %
06.12.2014 21:00 2,4 C 79 % 1021,5 hPa 0,0 l/m 0,0 km/h (0 Bft) N 0,00 h 0,000 mm 0,0 UV-I 0 W/m -0,8 C 2,4 C 0,0 km/h (0 Bft) 0,00 %
06.12.2014 22:00 2,4 C 81 % 1021,5 hPa 0,0 l/m 0,1 km/h (0 Bft) N 0,00 h 0,000 mm 0,0 UV-I 0 W/m -0,5 C 2,4 C 1,0 km/h (0 Bft) 0,00 %
06.12.2014 23:00 2,4 C 80 % 1021,6 hPa 0,3 l/m 0,0 km/h (0 Bft) N 0,00 h 0,000 mm 0,0 UV-I 0 W/m -0,7 C 2,4 C 0,0 km/h (0 Bft) 0,00 %
07.12.2014 00:00 2,3 C 80 % 1021,6 hPa 0,0 l/m 0,0 km/h (0 Bft) N 0,00 h 0,000 mm 0,0 UV-I 0 W/m -0,8 C 2,3 C 0,0 km/h (0 Bft) 0,00 %
07.12.2014 01:00 2,2 C 80 % 1021,5 hPa 1,2 l/m 0,0 km/h (0 Bft) N 0,00 h 0,000 mm 0,0 UV-I 0 W/m -0,9 C 2,2 C 0,0 km/h (0 Bft) 0,00 %
07.12.2014 02:00 1,9 C 80 % 1021,4 hPa 0,6 l/m 0,0 km/h (0 Bft) N 0,00 h 0,000 mm 0,0 UV-I 0 W/m -1,2 C 1,9 C 0,0 km/h (0 Bft) 0,00 %
07.12.2014 03:00 1,9 C 80 % 1021,1 hPa 0,3 l/m 0,1 km/h (0 Bft) N 0,00 h 0,000 mm 0,0 UV-I 0 W/m -1,2 C 1,9 C 1,0 km/h (0 Bft) 0,00 %
07.12.2014 04:00 1,9 C 81 % 1020,8 hPa 0,0 l/m 0,0 km/h (0 Bft) N 0,00 h 0,000 mm 0,0 UV-I 0 W/m -1,1 C 1,9 C 0,0 km/h (0 Bft) 0,00 %
07.12.2014 05:00 1,9 C 81 % 1020,8 hPa 0,3 l/m 0,0 km/h (0 Bft) N 0,00 h 0,000 mm 0,0 UV-I 0 W/m -1,0 C 1,9 C 0,0 km/h (0 Bft) 0,00 %
07.12.2014 06:00 1,9 C 81 % 1020,9 hPa 0,3 l/m 0,1 km/h (0 Bft) N 0,00 h 0,000 mm 0,0 UV-I 0 W/m -1,0 C 1,9 C 1,0 km/h (0 Bft) 0,00 %
07.12.2014 07:00 1,8 C 81 % 1021,0 hPa 0,3 l/m 0,2 km/h (0 Bft) N 0,00 h 0,000 mm 0,0 UV-I 0 W/m -1,1 C 1,8 C 2,0 km/h (1 Bft) 0,00 %
07.12.2014 08:00 2,0 C 81 % 1021,3 hPa 0,3 l/m 0,2 km/h (0 Bft) N 0,00 h 0,000 mm 0,0 UV-I 11 W/m -1,0 C 2,0 C 2,0 km/h (1 Bft) 0,00 %
07.12.2014 09:00 2,3 C 81 % 1021,4 hPa 0,3 l/m 0,6 km/h (0 Bft) O-SO 0,00 h 0,000 mm 1,0 UV-I 49 W/m -0,6 C 2,3 C 2,0 km/h (1 Bft) 0,00 %
07.12.2014 10:00 2,8 C 83 % 1021,2 hPa 0,3 l/m 0,3 km/h (0 Bft) N 0,00 h 0,000 mm 1,0 UV-I 70 W/m 0,2 C 2,8 C 2,0 km/h (1 Bft) 0,00 %
07.12.2014 11:00 3,1 C 83 % 1020,7 hPa 0,3 l/m 0,7 km/h (0 Bft) W-SW 0,00 h 0,000 mm 1,0 UV-I 81 W/m 0,5 C 3,1 C 2,0 km/h (1 Bft) 0,00 %
07.12.2014 12:00 3,3 C 83 % 1020,5 hPa 0,3 l/m 0,2 km/h (0 Bft) N 0,00 h 0,000 mm 1,0 UV-I 58 W/m 0,7 C 3,3 C 2,0 km/h (1 Bft) 0,00 %
07.12.2014 13:00 3,4 C 83 % 1020,2 hPa 0,6 l/m 0,4 km/h (0 Bft) W-SW 0,00 h 0,000 mm 1,0 UV-I 61 W/m 0,9 C 3,4 C 1,0 km/h (0 Bft) 0,00 %
07.12.2014 14:00 3,5 C 83 % 1019,9 hPa 0,3 l/m 0,4 km/h (0 Bft) N 0,00 h 0,000 mm 0,0 UV-I 30 W/m 1,0 C 3,5 C 3,0 km/h (1 Bft) 0,00 %
07.12.2014 15:00 3,3 C 85 % 1020,0 hPa 0,9 l/m 1,1 km/h (1 Bft) SW 0,00 h 0,000 mm 0,0 UV-I 5 W/m 1,0 C 3,3 C 4,0 km/h (1 Bft) 0,00 %
07.12.2014 16:00 3,1 C 85 % 1019,9 hPa 0,0 l/m 0,1 km/h (0 Bft) N 0,00 h 0,000 mm 0,0 UV-I 0 W/m 0,7 C 3,1 C 1,0 km/h (0 Bft) 0,00 %
07.12.2014 17:00 2,9 C 84 % 1019,9 hPa 0,6 l/m 0,0 km/h (0 Bft) NO 0,00 h 0,000 mm 0,0 UV-I 0 W/m 0,5 C 2,9 C 0,0 km/h (0 Bft) 0,00 %
07.12.2014 18:00 2,8 C 84 % 1020,0 hPa 0,6 l/m 0,5 km/h (0 Bft) N 0,00 h 0,000 mm 0,0 UV-I 0 W/m 0,4 C 2,8 C 2,0 km/h (1 Bft) 0,00 %
07.12.2014 19:00 2,8 C 84 % 1020,2 hPa 0,6 l/m 0,6 km/h (0 Bft) S-SW 0,00 h 0,000 mm 0,0 UV-I 0 W/m 0,3 C 2,8 C 3,0 km/h (1 Bft) 0,00 %
07.12.2014 20:00 2,8 C 84 % 1020,3 hPa 0,0 l/m 0,8 km/h (0 Bft) W-SW 0,00 h 0,000 mm 0,0 UV-I 0 W/m 0,4 C 2,8 C 3,0 km/h (1 Bft) 0,00 %
07.12.2014 21:00 2,9 C 84 % 1020,3 hPa 0,6 l/m 1,1 km/h (0 Bft) W-SW 0,00 h 0,000 mm 0,0 UV-I 0 W/m 0,5 C 2,9 C 3,0 km/h (1 Bft) 0,00 %
07.12.2014 22:00 3,0 C 84 % 1020,2 hPa 0,3 l/m 0,4 km/h (0 Bft) N 0,00 h 0,000 mm 0,0 UV-I 0 W/m 0,5 C 3,0 C 3,0 km/h (1 Bft) 0,00 %
07.12.2014 23:00 2,9 C 85 % 1020,0 hPa 0,3 l/m 0,6 km/h (0 Bft) SW 0,00 h 0,000 mm 0,0 UV-I 0 W/m 0,6 C 2,9 C 3,0 km/h (1 Bft) 0,00 %
Min-Datum _ 02.12.14 04.12.14 01.12.14 - 02.12.14 - - - - - 02.12.14 01.12.14 02.12.14 01.12.14
_ Min-Zeit 16:15 14:15 14:45 - 03:30 - - - - - 18:30 10:30 03:30 00:00
Minimum _ 0,4 C 71 % 1004,0 hPa - 0,0 km/h (0 Bft) - - - - - -3,0 C -13,6 C 0,0 km/h (0 Bft) 0,00 %
Max-Datum _ 04.12.14 06.12.14 06.12.14 07.12.14 01.12.14 - 04.12.14 01.12.14 01.12.14 05.12.14 04.12.14 04.12.14 01.12.14 01.12.14
_ Max-Zeit 14:45 00:45 22:45 01:45 10:30 - 08:15 00:00 12:45 12:45 13:30 14:45 10:30 00:00
Maximum _ 6,6 C 86 % 1021,7 hPa 1,2 l/m 40,0 km/h
O-SO (6 Bft)
- 0,25 h 0,000 mm 1,0 UV-I 245 W/m 1,8 C 6,6 C 52,2 km/h
O-SO (7 Bft)
0,00 %
Durchschnitt _ 2,6 C 80 % 1014,6 hPa #11,7 l/m 4,5 km/h (1 Bft) O #1:30 h #0,000 mm 1,0 UV-I 51 W/m -0,6 C 1,2 C 7,1 km/h (2 Bft) 0,00 %